Lakeville, MN

12:50 PM CDT on August 31, 2016 (GMT -0500)
Airlake

Weather History for KLVN - July, 2014

Change the Weather History Date:

Sunday, July 27, 2014

  Actual Average Record
Temperature  
Mean Temperature 68 °F -  
Max Temperature 73 °F 81 °F 97 °F (1988)
Min Temperature 60 °F 60 °F 44 °F (1971)
Cooling Degree Days 2    
Growing Degree Days 18 (Base 50)    
Moisture  
Dew Point 57 °F    
Average Humidity 71    
Maximum Humidity 82    
Minimum Humidity 57    
Precipitation  
Precipitation 0.00 in - - ()
Sea Level Pressure  
Sea Level Pressure 29.92 in    
Wind  
Wind Speed 10 mph (NW)    
Max Wind Speed 20 mph    
Max Gust Speed 29 mph    
Visibility 10 miles    
Events      
Averages and records for this station are not official NWS values.
T = Trace of Precipitation, MM = Missing Value Source: NWS Daily Summary

Daily Weather History Graph

Daily Weather History Graph

Search for Another Location

Airport or City:

Trip Planner

Search our weather history database for the weather conditions in past years. The results will help you decide how hot, cold, wet, or windy it might be!

Date:

Astronomy

Jul. 27, 2014 Rise Set
Actual Time 5:53 AM CDT 8:44 PM CDT
Civil Twilight 5:19 AM CDT 9:18 PM CDT
Nautical Twilight 4:36 AM CDT 10:01 PM CDT
Astronomical Twilight 3:45 AM CDT 10:51 PM CDT
Moon 6:45 AM CDT (7/27) 8:48 PM CDT (7/27)
Length of Visible Light 15h 58m
Length of Day
14h 50m
New Moon, 1% of the Moon is Illuminated
Jul 27
New Moon
Aug 3
First Quarter
Aug 10
Full
Aug 17
Last Quarter
Aug 25
New

Hourly Weather History & Observations

Time (CDT) Temp. Dew Point Humidity Pressure Visibility Wind Dir Wind Speed Gust Speed Precip Events Conditions
12:13 AM 68.0 °F 60.8 °F 78% 29.83 in 10.0 mi West 4.6 mph - N/A   Clear
12:32 AM 68.0 °F 59.0 °F 73% 29.83 in 10.0 mi WSW 6.9 mph - N/A   Clear
12:53 AM 68.0 °F 59.0 °F 73% 29.83 in 10.0 mi West 5.8 mph - N/A   Scattered Clouds
1:12 AM 68.0 °F 59.0 °F 73% 29.83 in 10.0 mi West 4.6 mph - N/A   Clear
1:33 AM 66.2 °F 59.0 °F 78% 29.82 in 10.0 mi West 10.4 mph 16.1 mph N/A   Clear
1:53 AM 66.2 °F 57.2 °F 73% 29.82 in 10.0 mi West 9.2 mph - N/A   Clear
2:12 AM 66.2 °F 55.4 °F 68% 29.82 in 10.0 mi WNW 12.7 mph 19.6 mph N/A   Clear
2:33 AM 66.2 °F 55.4 °F 68% 29.82 in 10.0 mi West 6.9 mph - N/A   Clear
2:53 AM 64.4 °F 55.4 °F 73% 29.81 in 10.0 mi West 6.9 mph - N/A   Clear
3:13 AM 64.4 °F 57.2 °F 77% 29.81 in 10.0 mi West 5.8 mph - N/A   Clear
3:33 AM 64.4 °F 55.4 °F 73% 29.81 in 10.0 mi West 5.8 mph - N/A   Clear
3:52 AM 64.4 °F 55.4 °F 73% 29.80 in 10.0 mi WSW 8.1 mph - N/A   Clear
4:13 AM 64.4 °F 55.4 °F 73% 29.80 in 10.0 mi West 10.4 mph 16.1 mph N/A   Clear
4:33 AM 64.4 °F 55.4 °F 73% 29.79 in 10.0 mi West 9.2 mph 17.3 mph N/A   Clear
4:53 AM 64.4 °F 55.4 °F 73% 29.80 in 10.0 mi West 10.4 mph 16.1 mph N/A   Clear
5:13 AM 62.6 °F 55.4 °F 77% 29.80 in 10.0 mi West 9.2 mph 16.1 mph N/A   Clear
5:32 AM 62.6 °F 55.4 °F 77% 29.80 in 10.0 mi West 10.4 mph 18.4 mph N/A   Clear
5:53 AM 62.6 °F 55.4 °F 77% 29.80 in 10.0 mi West 11.5 mph - N/A   Clear
6:13 AM 62.6 °F 55.4 °F 77% 29.81 in 10.0 mi West 12.7 mph 18.4 mph N/A   Clear
6:33 AM 62.6 °F 55.4 °F 77% 29.81 in 10.0 mi West 11.5 mph - N/A   Clear
6:53 AM 62.6 °F 55.4 °F 77% 29.82 in 10.0 mi West 12.7 mph 18.4 mph N/A   Clear
7:12 AM 62.6 °F 57.2 °F 82% 29.82 in 10.0 mi West 16.1 mph 20.7 mph N/A   Clear
7:33 AM 62.6 °F 57.2 °F 82% 29.83 in 10.0 mi West 12.7 mph 17.3 mph N/A   Clear
7:53 AM 62.6 °F 57.2 °F 82% 29.83 in 10.0 mi West 9.2 mph 17.3 mph N/A   Mostly Cloudy
8:13 AM 62.6 °F 57.2 °F 82% 29.83 in 10.0 mi West 12.7 mph 20.7 mph N/A   Mostly Cloudy
8:33 AM 62.6 °F 57.2 °F 82% 29.83 in 10.0 mi WNW 12.7 mph 19.6 mph N/A   Mostly Cloudy
8:52 AM 64.4 °F 57.2 °F 77% 29.84 in 10.0 mi NW 13.8 mph 23.0 mph N/A   Mostly Cloudy
9:13 AM 66.2 °F 57.2 °F 73% 29.84 in 10.0 mi WNW 17.3 mph 24.2 mph N/A   Mostly Cloudy
9:32 AM 66.2 °F 57.2 °F 73% 29.85 in 10.0 mi NW 15.0 mph 26.5 mph N/A   Mostly Cloudy
9:53 AM 66.2 °F 55.4 °F 68% 29.85 in 10.0 mi WNW 18.4 mph 26.5 mph N/A   Mostly Cloudy
10:13 AM 66.2 °F 57.2 °F 73% 29.86 in 10.0 mi NW 13.8 mph 23.0 mph N/A   Mostly Cloudy
10:32 AM 66.2 °F 55.4 °F 68% 29.87 in 10.0 mi NW 16.1 mph 28.8 mph N/A   Overcast
10:53 AM 66.2 °F 57.2 °F 73% 29.88 in 10.0 mi NW 12.7 mph 23.0 mph N/A   Overcast
11:12 AM 69.8 °F 57.2 °F 64% 29.88 in 10.0 mi NNW 19.6 mph 25.3 mph N/A   Scattered Clouds
11:33 AM 68.0 °F 55.4 °F 64% 29.89 in 10.0 mi NW 18.4 mph 24.2 mph N/A   Mostly Cloudy
11:53 AM 69.8 °F 57.2 °F 64% 29.90 in 10.0 mi WNW 16.1 mph 21.9 mph N/A   Scattered Clouds
12:12 PM 69.8 °F 57.2 °F 64% 29.90 in 10.0 mi NW 16.1 mph 24.2 mph N/A   Mostly Cloudy
12:33 PM 71.6 °F 59.0 °F 64% 29.91 in 10.0 mi NW 13.8 mph 23.0 mph N/A   Mostly Cloudy
12:52 PM 68.0 °F 57.2 °F 68% 29.92 in 7.0 mi NNW 15.0 mph 24.2 mph N/A   Mostly Cloudy
1:13 PM 69.8 °F 60.8 °F 73% 29.92 in 10.0 mi NW 12.7 mph 19.6 mph N/A   Mostly Cloudy
1:33 PM 71.6 °F 60.8 °F 69% 29.92 in 10.0 mi NW 12.7 mph 20.7 mph N/A   Scattered Clouds
1:52 PM 69.8 °F 57.2 °F 64% 29.92 in 10.0 mi NNW 18.4 mph 24.2 mph N/A   Mostly Cloudy
2:13 PM 69.8 °F 57.2 °F 64% 29.93 in 10.0 mi NNW 17.3 mph 21.9 mph N/A   Mostly Cloudy
2:32 PM 71.6 °F 59.0 °F 64% 29.93 in 10.0 mi NW 12.7 mph 20.7 mph N/A   Scattered Clouds
2:53 PM 73.4 °F 59.0 °F 61% 29.93 in 10.0 mi NW 15.0 mph - N/A   Scattered Clouds
3:12 PM 71.6 °F 59.0 °F 64% 29.94 in 10.0 mi NW 12.7 mph 19.6 mph N/A   Mostly Cloudy
3:33 PM 73.4 °F 57.2 °F 57% 29.95 in 10.0 mi NNW 17.3 mph 23.0 mph N/A   Scattered Clouds
3:53 PM 73.4 °F 59.0 °F 61% 29.95 in 10.0 mi NNW 16.1 mph 23.0 mph N/A   Mostly Cloudy
4:12 PM 73.4 °F 57.2 °F 57% 29.95 in 10.0 mi NNW 13.8 mph 23.0 mph N/A   Scattered Clouds
4:33 PM 73.4 °F 57.2 °F 57% 29.96 in 10.0 mi North 13.8 mph 20.7 mph N/A   Mostly Cloudy
4:53 PM 73.4 °F 57.2 °F 57% 29.97 in 10.0 mi North 12.7 mph 23.0 mph N/A   Overcast
5:12 PM 73.4 °F 57.2 °F 57% 29.98 in 10.0 mi North 17.3 mph 23.0 mph N/A   Mostly Cloudy
5:33 PM 71.6 °F 59.0 °F 64% 29.98 in 10.0 mi NNW 10.4 mph 21.9 mph N/A   Mostly Cloudy
5:52 PM 73.4 °F 57.2 °F 57% 29.99 in 10.0 mi North 15.0 mph 19.6 mph N/A   Scattered Clouds
6:13 PM 71.6 °F 57.2 °F 60% 30.00 in 10.0 mi North 11.5 mph 18.4 mph N/A   Mostly Cloudy
6:33 PM 69.8 °F 59.0 °F 68% 30.01 in 10.0 mi North 15.0 mph - N/A   Mostly Cloudy
6:53 PM 69.8 °F 59.0 °F 68% 30.01 in 10.0 mi North 12.7 mph 18.4 mph N/A   Mostly Cloudy
7:13 PM 69.8 °F 59.0 °F 68% 30.02 in 10.0 mi North 11.5 mph 19.6 mph N/A   Mostly Cloudy
7:32 PM 69.8 °F 57.2 °F 64% 30.03 in 10.0 mi North 12.7 mph 18.4 mph N/A   Mostly Cloudy
7:53 PM 69.8 °F 57.2 °F 64% 30.04 in 10.0 mi NNE 15.0 mph 19.6 mph N/A   Mostly Cloudy
8:13 PM 66.2 °F 59.0 °F 78% 30.05 in 10.0 mi NNE 11.5 mph 18.4 mph N/A   Overcast
8:33 PM 66.2 °F 59.0 °F 78% 30.05 in 10.0 mi NNE 9.2 mph - N/A   Overcast
8:53 PM 66.2 °F 57.2 °F 73% 30.07 in 10.0 mi NNE 9.2 mph - N/A   Overcast
9:12 PM 64.4 °F 57.2 °F 77% 30.08 in 10.0 mi NE 6.9 mph - N/A   Mostly Cloudy
9:33 PM 64.4 °F 55.4 °F 73% 30.09 in 10.0 mi NNE 6.9 mph - N/A   Scattered Clouds
9:53 PM 62.6 °F 57.2 °F 82% 30.11 in 10.0 mi ENE 3.5 mph - N/A   Scattered Clouds
10:12 PM 62.6 °F 57.2 °F 82% 30.11 in 10.0 mi ENE 4.6 mph - N/A   Mostly Cloudy
10:33 PM 62.6 °F 57.2 °F 82% 30.12 in 10.0 mi NE 3.5 mph - N/A   Overcast
10:53 PM 62.6 °F 55.4 °F 77% 30.12 in 10.0 mi NE 5.8 mph - N/A   Mostly Cloudy
11:13 PM 62.6 °F 55.4 °F 77% 30.12 in 10.0 mi NNE 4.6 mph - N/A   Mostly Cloudy
11:52 PM 60.8 °F 55.4 °F 82% 30.13 in 10.0 mi Calm Calm - N/A   Mostly Cloudy